[[{"header":{"parameterUnit":"m.s-1","parameterCategory":1,"la1":30.2991,"la2":30.254,"lo1":-89.0895,"lo2":-89.0444,"dy":0.0017,"dx":0.0017,"nx":28,"ny":28,"refTime":"2025-01-19T09:00:00:Z","depth":0,"parameterNumber":2,"parameterNumberName":"U-component_of_WINDS"},"data":[0,0,0,0,0,0,0,0,0,0,0,0,0,0,0,0,0,0,0,0,0,0,0,0,0,0,0,0,0,0,0,0,0,0,0,0,0,0,0,0,0,0,0,0,0,0,0,0,0,0,0,0,0,0,0,0,0,0,-3.1153,-3.1154,0,-3.1184,-3.1185,-3.1185,-3.1114,-3.1111,-3.1109,-3.1107,-3.1139,-3.1142,-3.1145,0,0,0,0,0,0,0,0,0,0,0,0,0,-3.1033,-3.1035,-3.1153,-3.1154,-3.1154,-3.1184,-3.1185,-3.1185,-3.1114,-3.1111,-3.1108,-3.1106,-3.1138,-3.1142,-3.1146,0,0,0,0,0,0,0,0,0,0,0,0,0,-3.1077,-3.1036,-3.1153,-3.1122,-3.112,-3.1184,-3.1185,-3.1185,-3.1115,-3.1111,-3.1108,-3.1104,-3.1137,-3.1142,-3.1146,-3.1242,0,0,-3.116,-3.1162,0,0,0,0,0,0,0,0,-3.1074,-3.1081,-3.1126,-3.1124,-3.1122,-3.1141,-3.1154,-3.1204,-3.1115,-3.1117,-3.1107,-3.1103,-3.1143,-3.1147,-3.116,-3.1244,-3.1245,-3.116,-3.1163,-3.1165,-3.1166,0,0,0,0,0,0,0,-3.1071,-3.1079,-3.1165,-3.1127,-3.1124,-3.1107,-3.1109,-3.1163,-3.1149,-3.1116,-3.1111,-3.1116,-3.1141,-3.1156,-3.116,-3.1246,-3.116,-3.1164,-3.1167,-3.1169,-3.1409,-3.1413,0,0,0,0,0,0,-3.1072,-3.1077,-3.1164,-3.1166,-3.1089,-3.1112,-3.1114,-3.1139,-3.1148,-3.1146,-3.1119,-3.1112,-3.115,-3.1155,-3.1161,-3.1275,-3.1165,-3.1169,-3.1172,-3.1406,-3.141,-3.1414,0,0,0,0,0,0,-3.107,-3.108,-3.1163,-3.112,-3.113,-3.1117,-3.1145,-3.1141,-3.1156,-3.115,-3.1147,-3.1137,-3.1147,-3.1155,-3.1222,-3.1275,-3.1171,-3.1175,-3.1401,-3.1407,-3.1412,-3.1503,0,0,0,0,0,0,-3.1067,-3.108,-3.1117,-3.1122,-3.1132,-3.1224,-3.1148,-3.1144,-3.1164,-3.1156,-3.1166,-3.1164,-3.1145,-3.1216,-3.1227,-3.1279,-3.1179,-3.1397,-3.1404,-3.141,-3.1495,-3.1511,-3.1524,0,0,0,0,0,-3.1063,-3.1141,-3.1119,-3.113,-3.1178,-3.1228,-3.1233,-3.121,-3.1168,-3.1205,-3.1201,-3.1164,-3.1267,-3.1224,-3.1235,-3.129,-3.1393,-3.1402,-3.141,-3.1489,-3.1508,-3.1524,0,0,0,0,0,0,-3.1143,-3.1141,-3.1117,-3.1199,-3.1214,-3.1215,-3.1261,-3.1231,-3.1259,-3.125,-3.122,-3.1223,-3.1296,-3.1299,-3.1251,-3.1383,-3.1323,-3.1334,-3.1379,-3.1397,-3.1411,-3.141,-3.1182,0,0,0,0,0,-3.117,-3.1211,-3.1207,-3.128,-3.1289,-3.1274,-3.1295,-3.1275,-3.129,-3.1296,-3.1296,-3.1312,-3.1348,-3.1372,-3.1405,-3.1494,-3.1496,-3.1537,-3.1552,-3.1564,-3.1574,-3.1622,-3.1641,-3.1442,-3.1442,-3.1441,0,0,-3.1227,-3.1231,-3.1259,-3.1296,-3.1306,-3.1349,-3.128,-3.1328,-3.136,-3.1303,-3.1367,-3.1368,-3.1383,-3.1463,-3.1497,-3.1467,-3.1629,-3.1574,-3.1584,-3.1588,-3.1633,-3.1651,-3.1668,-3.1447,-3.1446,-3.1445,0,0,-3.1353,-3.136,-3.1422,-3.1432,-3.1447,-3.1436,-3.1451,-3.1457,-3.1455,-3.1519,-3.1477,-3.1514,-3.1577,-3.1589,-3.1604,-3.1733,-3.1701,-3.1745,-3.1821,-3.1868,-3.1884,-3.1898,-3.1945,-3.1962,-3.1755,-3.1755,-3.1755,0,-3.1423,-3.1486,-3.1458,-3.1509,-3.1527,-3.1477,-3.1539,-3.1551,-3.1576,-3.1589,-3.1554,-3.1631,-3.1638,-3.172,-3.1751,-3.1764,-3.1781,-3.1744,-3.1884,-3.1897,-3.191,-3.1955,-3.1972,-3.176,-3.176,-3.1759,-3.1759,0,-3.1571,-3.1615,-3.1663,-3.1688,-3.1711,-3.1768,-3.1748,-3.1775,-3.1753,-3.1746,-3.1811,-3.1817,-3.185,-3.1867,-3.1847,-3.1946,-3.1927,-3.1889,-3.1828,-3.1935,-3.1976,-3.1993,-3.1768,-3.1766,-3.1764,-3.1763,0,0,-3.1751,-3.1758,-3.1777,-3.1787,-3.1799,-3.1833,-3.1887,-3.1918,-3.1942,-3.196,-3.2005,-3.2059,-3.2023,-3.204,-3.2019,-3.2061,-3.2164,-3.2017,-3.2017,-3.2045,-3.2274,-3.2304,-3.2325,-3.2141,-3.2144,-3.2147,-3.2273,0,-3.1876,-3.1969,-3.1945,-3.2038,-3.2079,-3.2031,-3.2078,-3.209,-3.2085,-3.2118,-3.2111,-3.215,-3.21,-3.2109,-3.2148,-3.2143,-3.221,-3.2133,-3.2184,-3.2186,-3.2183,-3.2346,-3.2378,-3.2498,-3.2289,-3.2292,-3.2294,0,-3.2036,-3.206,-3.2157,-3.2162,-3.2178,-3.2221,-3.2248,-3.228,-3.2293,-3.2286,-3.2304,-3.2275,-3.2329,-3.2266,-3.2339,-3.2288,-3.2307,-3.2307,-3.2311,-3.2317,-3.2248,-3.2357,-3.2535,-3.2554,-3.2319,-3.2317,-3.2315,0,-3.2159,-3.2216,-3.2281,-3.2291,-3.2298,-3.2329,-3.2334,-3.2343,-3.2363,-3.2387,-3.24,-3.2429,-3.2446,-3.2469,-3.2449,-3.2405,-3.2525,-3.2461,-3.2522,-3.2523,-3.2551,-3.255,-3.2736,-3.2561,-3.256,-3.256,-3.256,0,-3.2303,-3.2365,-3.2336,-3.2377,-3.2444,-3.2415,-3.2483,-3.2481,-3.249,-3.2529,-3.2488,-3.2526,-3.2497,-3.2532,-3.2516,-3.258,-3.2587,-3.2583,-3.2579,-3.2588,-3.2589,-3.2601,-3.2593,-3.2565,-3.2564,-3.2563,-3.2562,0,-3.2453,-3.2436,-3.2505,-3.2505,-3.2506,-3.2556,-3.2556,-3.2594,-3.2584,-3.2635,-3.2645,-3.263,-3.2669,-3.2651,-3.2692,-3.2681,-3.2764,-3.2747,-3.276,-3.2756,-3.2818,-3.2813,-3.302,-3.3046,-3.2853,-3.2854,-3.2856,0,-3.2547,-3.2593,-3.2598,-3.2622,-3.2629,-3.2667,-3.2687,-3.266,-3.2683,-3.27,-3.2736,-3.2771,-3.2798,-3.2863,-3.2856,-3.2887,-3.2872,-3.2942,-3.2877,-3.2884,-3.2875,-3.2873,-3.2878,-3.2956,-3.2959,-3.2961,-3.2962,0,-3.2716,-3.2705,-3.2737,-3.2765,-3.279,-3.2811,-3.2829,-3.285,-3.2823,-3.2851,-3.2891,-3.2912,-3.2953,-3.2989,-3.3016,-3.302,-3.2987,-3.2982,-3.2998,-3.3009,-3.3015,-3.3014,-3.2797,-3.2978,-3.2977,-3.2976,-3.2975,-3.2974,-3.2842,-3.2881,-3.2891,-3.2926,-3.2936,-3.2954,-3.2989,-3.2983,-3.3015,-3.3047,-3.3028,-3.3075,-3.3085,-3.3118,-3.3126,-3.3162,-3.3134,-3.3157,-3.3163,-3.317,-3.3178,-3.3008,-3.3166,-3.3166,-3.3165,-3.3165,-3.3165,0,-3.301,-3.3014,-3.3047,-3.3072,-3.3101,-3.3066,-3.3083,-3.3109,-3.315,-3.3163,-3.319,-3.3235,-3.3269,-3.3265,-3.3296,-3.3325,-3.3311,-3.3335,-3.3333,-3.3335,-3.3201,-3.3185,-3.3346,-3.3346,-3.3346,-3.3346,-3.3346,-3.3345,-3.3101,-3.3165,-3.3156,-3.3224,-3.3226,-3.3271,-3.3284,-3.33,-3.331,-3.3362,-3.339,-3.3386,-3.3392,-3.3423,-3.3453,-3.345,-3.3464,-3.3494,-3.3486,-3.3362,-3.3344,-3.3327,-3.3312,-3.3497,-3.3497,-3.3617,-3.3618,-3.3619]},{"header":{"parameterUnit":"m.s-1","parameterCategory":1,"la1":30.2991,"la2":30.254,"lo1":-89.0895,"lo2":-89.0444,"dy":0.0017,"dx":0.0017,"nx":28,"ny":28,"refTime":"2025-01-19T09:00:00:Z","depth":0,"parameterNumber":3,"parameterNumberName":"V-component_of_WINDS"},"data":[0,0,0,0,0,0,0,0,0,0,0,0,0,0,0,0,0,0,0,0,0,0,0,0,0,0,0,0,0,0,0,0,0,0,0,0,0,0,0,0,0,0,0,0,0,0,0,0,0,0,0,0,0,0,0,0,0,0,-6.2939,-6.2939,0,-6.3008,-6.3009,-6.301,-6.2943,-6.294,-6.2938,-6.2935,-6.3002,-6.3006,-6.301,0,0,0,0,0,0,0,0,0,0,0,0,0,-6.2744,-6.2748,-6.2939,-6.294,-6.294,-6.3008,-6.3009,-6.301,-6.2943,-6.294,-6.2937,-6.2934,-6.3,-6.3005,-6.301,0,0,0,0,0,0,0,0,0,0,0,0,0,-6.2822,-6.2749,-6.2938,-6.2916,-6.2914,-6.3008,-6.3009,-6.301,-6.2944,-6.294,-6.2936,-6.2932,-6.2999,-6.3005,-6.3011,-6.3129,0,0,-6.3031,-6.3033,0,0,0,0,0,0,0,0,-6.2818,-6.2829,-6.2918,-6.2917,-6.2916,-6.2963,-6.2964,-6.305,-6.2945,-6.2933,-6.2935,-6.2931,-6.2992,-6.2998,-6.302,-6.3133,-6.3135,-6.3031,-6.3035,-6.3038,-6.3039,0,0,0,0,0,0,0,-6.2813,-6.2826,-6.2966,-6.2919,-6.2918,-6.29,-6.2907,-6.298,-6.2983,-6.2933,-6.2929,-6.2938,-6.299,-6.3014,-6.3021,-6.3136,-6.3031,-6.3037,-6.304,-6.3043,-6.3349,-6.3353,0,0,0,0,0,0,-6.281,-6.2822,-6.2964,-6.2968,-6.2856,-6.2907,-6.2914,-6.2952,-6.2982,-6.2983,-6.2941,-6.2935,-6.3005,-6.3014,-6.3023,-6.3164,-6.3038,-6.3044,-6.3047,-6.3344,-6.335,-6.3354,0,0,0,0,0,0,-6.2806,-6.2824,-6.2961,-6.2894,-6.291,-6.2914,-6.2957,-6.2955,-6.2979,-6.2989,-6.2988,-6.2965,-6.3002,-6.3014,-6.3104,-6.3165,-6.3046,-6.3052,-6.3339,-6.3346,-6.3352,-6.3446,0,0,0,0,0,0,-6.2801,-6.2823,-6.2869,-6.2895,-6.2914,-6.3042,-6.2961,-6.2959,-6.299,-6.2982,-6.3011,-6.3012,-6.3,-6.3095,-6.311,-6.3171,-6.3057,-6.3334,-6.3342,-6.335,-6.3437,-6.3454,-6.3469,0,0,0,0,0,-6.2794,-6.2892,-6.2872,-6.2889,-6.2972,-6.3046,-6.3056,-6.3042,-6.2996,-6.3041,-6.3047,-6.3011,-6.3156,-6.3104,-6.3121,-6.3185,-6.333,-6.334,-6.3349,-6.343,-6.3451,-6.3469,0,0,0,0,0,0,-6.287,-6.2895,-6.2873,-6.2982,-6.3013,-6.3035,-6.3092,-6.3065,-6.3108,-6.3099,-6.3078,-6.3085,-6.318,-6.3191,-6.3134,-6.3301,-6.3235,-6.3249,-6.329,-6.3311,-6.3327,-6.3322,-6.3062,0,0,0,0,0,-6.29,-6.296,-6.2977,-6.3071,-6.3088,-6.3088,-6.3119,-6.3106,-6.3136,-6.3148,-6.3161,-6.319,-6.3242,-6.3277,-6.3325,-6.3438,-6.3443,-6.349,-6.3507,-6.352,-6.3532,-6.3592,-6.3613,-6.3386,-6.3386,-6.3386,0,0,-6.2962,-6.2982,-6.3021,-6.3087,-6.3109,-6.317,-6.3099,-6.3166,-6.321,-6.3158,-6.3244,-6.3254,-6.3285,-6.3387,-6.3432,-6.34,-6.3595,-6.3532,-6.3543,-6.3548,-6.3604,-6.3625,-6.3645,-6.3393,-6.3392,-6.3391,0,0,-6.3105,-6.3127,-6.3208,-6.3232,-6.3267,-6.3266,-6.3286,-6.3312,-6.3317,-6.3403,-6.3365,-6.3416,-6.3507,-6.3531,-6.3555,-6.3707,-6.3674,-6.3723,-6.3807,-6.3866,-6.3884,-6.39,-6.3954,-6.3974,-6.3735,-6.3735,-6.3735,0,-6.3177,-6.3268,-6.3253,-6.3323,-6.3353,-6.3309,-6.3391,-6.3414,-6.3462,-6.3483,-6.3446,-6.3558,-6.3576,-6.3683,-6.372,-6.3741,-6.3762,-6.372,-6.3883,-6.3899,-6.3913,-6.3964,-6.3985,-6.3741,-6.374,-6.3739,-6.3739,0,-6.3355,-6.3419,-6.348,-6.353,-6.3566,-6.3641,-6.3636,-6.3674,-6.3657,-6.366,-6.3747,-6.3767,-6.3819,-6.3843,-6.3827,-6.3947,-6.3926,-6.3886,-6.3819,-6.3941,-6.3988,-6.4008,-6.3749,-6.3747,-6.3745,-6.3744,0,0,-6.3548,-6.3589,-6.3611,-6.3633,-6.3669,-6.3717,-6.379,-6.3842,-6.3875,-6.3909,-6.3969,-6.4046,-6.401,-6.4037,-6.4023,-6.4075,-6.4194,-6.4028,-6.4029,-6.4058,-6.4327,-6.4357,-6.438,-6.4172,-6.4176,-6.4179,-6.4325,0,-6.3693,-6.3822,-6.3809,-6.3931,-6.3989,-6.3948,-6.4011,-6.4039,-6.4043,-6.4092,-6.4095,-6.415,-6.4098,-6.4114,-6.4163,-6.4169,-6.4247,-6.4158,-6.4227,-6.4229,-6.4221,-6.4405,-6.4437,-6.4574,-6.4343,-6.4346,-6.4349,0,-6.3879,-6.3922,-6.405,-6.4076,-6.41,-6.4158,-6.4204,-6.4252,-6.4281,-6.428,-6.4311,-6.4288,-6.4359,-6.4291,-6.4389,-6.4328,-6.4355,-6.4362,-6.4367,-6.4373,-6.4297,-6.4417,-6.4618,-6.4638,-6.4378,-6.4376,-6.4374,0,-6.4008,-6.4097,-6.4185,-6.4205,-6.4238,-6.4279,-6.4295,-6.4321,-6.4353,-6.4392,-6.4413,-6.446,-6.4486,-6.4522,-6.4511,-6.4463,-6.4611,-6.4542,-6.4612,-6.4612,-6.4645,-6.4643,-6.4854,-6.4663,-6.4662,-6.4662,-6.4661,0,-6.4171,-6.4251,-6.4244,-6.4298,-6.4386,-6.437,-6.4456,-6.4466,-6.449,-6.4544,-6.451,-6.4561,-6.4544,-6.4594,-6.4586,-6.4668,-6.4679,-6.468,-6.4677,-6.4683,-6.4683,-6.4701,-6.4691,-6.4667,-6.4666,-6.4665,-6.4664,0,-6.433,-6.4329,-6.4422,-6.4446,-6.4453,-6.4517,-6.4536,-6.4587,-6.4588,-6.4657,-6.4672,-6.4673,-6.473,-6.4723,-6.4786,-6.478,-6.4882,-6.4867,-6.4873,-6.487,-6.494,-6.4934,-6.5169,-6.5199,-6.4988,-6.499,-6.4992,0,-6.4435,-6.4495,-6.4526,-6.4561,-6.4579,-6.4635,-6.4668,-6.4654,-6.4689,-6.4728,-6.4773,-6.4827,-6.487,-6.4962,-6.4968,-6.5016,-6.5002,-6.5081,-6.5009,-6.5013,-6.5003,-6.5,-6.5006,-6.5096,-6.5098,-6.51,-6.5101,0,-6.462,-6.4616,-6.4666,-6.4716,-6.4756,-6.4794,-6.4828,-6.4858,-6.4847,-6.4888,-6.4946,-6.498,-6.5045,-6.5098,-6.5143,-6.5157,-6.5128,-6.5124,-6.5143,-6.515,-6.5151,-6.5152,-6.4912,-6.5119,-6.5117,-6.5116,-6.5115,-6.5114,-6.4755,-6.4807,-6.4837,-6.4893,-6.4918,-6.495,-6.4999,-6.5007,-6.5056,-6.5109,-6.5097,-6.5163,-6.519,-6.5247,-6.5266,-6.5316,-6.5287,-6.5314,-6.5321,-6.5328,-6.5336,-6.5143,-6.5324,-6.5323,-6.5323,-6.5323,-6.5322,0,-6.4939,-6.4956,-6.5008,-6.5058,-6.5102,-6.5071,-6.5107,-6.5146,-6.5205,-6.5233,-6.5276,-6.5343,-6.5395,-6.5405,-6.5454,-6.5492,-6.548,-6.5506,-6.5503,-6.5506,-6.5359,-6.5339,-6.5515,-6.5515,-6.5515,-6.5515,-6.5515,-6.5515,-6.504,-6.5127,-6.5126,-6.5224,-6.524,-6.5306,-6.5329,-6.5358,-6.5381,-6.5458,-6.5502,-6.5508,-6.5529,-6.5579,-6.5625,-6.5626,-6.5646,-6.5677,-6.5673,-6.5536,-6.5517,-6.5498,-6.5479,-6.5681,-6.5682,-6.5816,-6.5817,-6.5818]}]]